Regional Weather Roundup
Issued by NWS

Home | Current Version | Previous Version | Graphics & Text | Print | Product List | Glossary On
Versions: 1 2 3 4 5 6 7 8 9 10 11 12 13 14 15 16 17 18 19 20 21 22 23 24 25 26 27 28 29 30 31 32 33 34 35 36 37 38 39 40 41 42 43 44 45 46 47 48 49 50
240
ASUS43 KTOP 091259
RWRKS

WEATHER ROUNDUP FOR KANSAS
NATIONAL WEATHER SERVICE GOODLAND KS
700 AM CST TUE FEB 09 2016

NOTE:  "FAIR" INDICATES FEW OR NO CLOUDS BELOW 12,000 FEET WITH NO
SIGNIFICANT WEATHER AND/OR OBSTRUCTIONS TO VISIBILITY.

KSZ001>006-013>018-027>032-041>047-091400-
NORTHWEST KANSAS

CITY           SKY/WX    TMP DP  RH WIND       PRES   REMARKS
GOODLAND       CLOUDY    25  19  78 NW9       30.22S
HAYS           PTCLDY    30  16  55 NW9       30.23R
HILL CITY      CLEAR     27  20  75 CALM      30.24R
RUSSELL        CLOUDY    32  20  61 N10       30.22R WCI  24
$$

KSZ061>065-074>080-084>089-091400-
SOUTHWEST KANSAS

CITY           SKY/WX    TMP DP  RH WIND       PRES   REMARKS
DODGE CITY     CLEAR     28  22  78 NW12      30.24R WCI  18
ELKHART          N/A     32  20  61 W9          N/A
GARDEN CITY    CLEAR     24  21  88 NW9       30.25R
GREAT BEND     CLOUDY    32  18  55 NW7       30.23R
LIBERAL        CLEAR     30  21  69 W8        30.27R
$$

KSZ066>073-081>083-090>101-091400-
SOUTHEAST KANSAS

CITY           SKY/WX    TMP DP  RH WIND       PRES   REMARKS
CHANUTE        CLEAR     29  19  66 NW14G23   30.13R WCI  18
COFFEYVILLE    CLEAR     30  19  63 NW12      30.17R WCI  20
HUTCHINSON     MOCLDY    33  17  51 NW12      30.21R WCI  24
MEDICINE LODGE   N/A     28  19  69 NW7       30.22S
NEWTON         MOCLDY    30  16  55 NW15G21   30.20R WCI  19
PARSONS        CLEAR     29  19  66 NW13      30.15R WCI  19
WICHITA INTL   MOCLDY    33  18  53 NW15      30.20R WCI  23
WICHITA JABRA  PTCLDY    28  19  69 NW12      30.19R WCI  18
WINFIELD       CLEAR     26  19  74 W8        30.21R
$$

KSZ007>012-019>026-033>040-048>060-102>105-091400-
NORTHEAST KANSAS

CITY           SKY/WX    TMP DP  RH WIND       PRES   REMARKS
CONCORDIA      CLOUDY    25  15  66 N15G21    30.23R WCI  13
EMPORIA        CLEAR     27  16  63 NW18G28   30.16R WCI  14
LAWRENCE       CLEAR     23   8  52 N23G35    30.14R WCI   7
MANHATTAN      CLEAR     27  13  55 N9G23     30.22R
OLATHE IND     CLEAR     22   9  57 NW21G32   30.11R WCI   6
OLATHE EXE     PTCLDY    22   9  57 N17G25    30.10R WCI   8
SALINA         CLOUDY    32  18  56 N16       30.24R WCI  21
TOPEKA BILLARD CLEAR     24   7  48 NW23G33   30.17R WCI   9
TOPEKA FORBES  CLEAR     25   9  50 NW30      30.14R WCI   8
$$




USA.gov is the U.S. government's official web portal to all federal, state and local government web resources and services.